sat.trackr.live / text

‹ back to catalog

STARLINK-32019

NORAD 60147 · 2024-120N

PAYLOAD ACTIVE UNKNOWN

§ Identity

Operator
Country
US
Launch date
2024-06-27
Launch site
AFETR
Launch vehicle
Mass (kg)
RCS (m²)

Purposes: comms

External: N2YO · Heavens-Above · Gunter

§ Orbital elements

Epoch: 2026-09-21T21:00:40.858560Z

Period
93.85 min
Inclination
53.1595°
Eccentricity
0.0001247
Mean motion
15.34381714 rev/d
Perigee alt
461.9 km
Apogee alt
463.6 km
Semi-major
6,840.9 km
B*
6.4140e-5
RAAN
125.0811°
Arg perigee
74.5524°
Mean anomaly
285.5616°
Rev number
12,646

§ Raw data

STARLINK-320191 60147U 24120N   26264.87547290  .00001790  00000+0  64140-4 0  99942 60147  53.1595 125.0811 0001247  74.5524 285.5616 15.34381714126466

JSON: /api/v1/satellites/60147 · /tle

For live sub-satellite position, see the globe view (requires WebGL).

§ Visibility from observer

Set your observer location to see the next 7 days of passes ≥ 10°. The values pass through the URL so the page stays shareable.

No JS? Fill the form by hand. The geolocation button needs JavaScript.